Location: Naloco
(16.5478°S, 37.1017°E)
Time: 02:11:21
(UTC+00:00)

CSL-04 Rocket - Pass Details

Date: 13 August 2020
Orbit: 807 x 859 km, 98.9° (Epoch: 23 September)

Event Time Altitude Azimuth Distance (km) Brightness Sun altitude
Exits shadow 16:41:37 36° 101° (E) 1,292 4.1 -19.4°
Maximum altitude 16:42:27 38° 79° (E) 1,239 4.1 -19.6°
Drops below altitude 10° 16:47:20 10° 12° (NNE) 2,395 6.0 -20.7°
Sets 16:49:48 0° 4° (N) 3,314 6.9 -21.3°
